Location: Gleizolles
(44.4833°N, 6.7667°E)
Time: 22:12:01
(UTC+00:00)

Tiros 1 despin weight - Pass Details

Date: 01 July 2024
Orbit: 576 x 620 km, 48.2° (Epoch: 19 July)

Event Time Altitude Azimuth Distance (km) Brightness Sun altitude
Rises 07:44:45 0° 217° (SW) 2,844 ? 38.5°
Reaches altitude 10° 07:47:11 10° 208° (SSW) 1,951 ? 38.9°
Maximum altitude 07:51:14 34° 143° (SE) 1,010 ? 39.6°
Drops below altitude 10° 07:55:21 10° 79° (E) 1,980 ? 40.3°
Sets 07:57:49 0° 70° (ENE) 2,892 ? 40.8°
